Regional Weather Roundup
Issued by NWS

Home | Current Version | Previous Version | Text Only | Print | Product List | Glossary Off
Versions: 1 2 3 4 5 6 7 8 9 10 11 12 13 14 15 16 17 18 19 20 21 22 23 24 25 26 27

000
ASUS45 KBOI 181610
RWRID
WEATHER ROUNDUP FOR IDAHO
NATIONAL WEATHER SERVICE BOISE ID
1000 AM MDT FRI APR 18 2014

NOTE: "FAIR" INDICATES FEW OR NO CLOUDS BELOW 12000 FEET
WITH NO SIGNIFICANT WEATHER AND/OR OBSTRUCTIONS TO VISIBILITY

IDZ012-014-181700-
SOUTHWEST IDAHO


CITY           SKY/WX    TMP DP  RH WIND       PRES   REMARKS
BOISE          CLOUDY    51  39  63 NW10      30.01R
CALDWELL       MOSUNNY   54  36  50 NW12      30.04R
MOUNTAIN HOME  CLOUDY    53  39  58 NW14      30.00S
$$

IDZ016-017-181700-
SOUTHCENTRAL IDAHO


CITY           SKY/WX    TMP DP  RH WIND       PRES   REMARKS
BURLEY         CLOUDY    46  39  76 W12G21    29.98R
JEROME         CLOUDY    46  40  79 SW18      29.99R
TWIN FALLS     CLOUDY    47  40  76 W14       30.00S
$$

IDZ019>023-181700-
SOUTHEAST IDAHO


CITY           SKY/WX    TMP DP  RH WIND       PRES   REMARKS
IDAHO FALLS    LGT RAIN  44  40  85 S28G37    29.90S
POCATELLO      CLOUDY    45  40  82 SW28G37   29.96R
REXBURG        LGT RAIN  43  39  86 SW17G35   29.87R
$$

IDZ006-010-011-018-031-032-181700-
CENTRAL IDAHO MOUNTAINS


CITY           SKY/WX    TMP DP  RH WIND       PRES   REMARKS
MCCALL         PTSUNNY   39  27  62 SW9       29.93R WCI  33
HAILEY         PTSUNNY   46  36  66 MISG      29.92R
STANLEY          N/A     38  28  67 NW5       29.95R WCI  34
SALMON         CLOUDY    46  37  71 CALM      29.82F
CHALLIS        CLOUDY    49  22  34 SW7       29.85R
$$

IDZ002-004-006-007-026-181700-
NORTHERN IDAHO


CITY           SKY/WX    TMP DP  RH WIND       PRES   REMARKS
LEWISTON       SUNNY     50  23  34 W13G22    29.98R
LOWELL           N/A     46  42  86 CALM      29.98R
COEUR D`ALENE  CLOUDY    43  30  61 S15G24    29.90R
MULLAN PASS    SNOW      25  23  92 SW9G22    29.78F VSB 1/2 WCI  15
$$



USA.gov is the U.S. government's official web portal to all federal, state and local government web resources and services.